Millington, TN

6:34 AM CST on December 11, 2016 (GMT -0600)
Millington Municipal

Weather History for KNQA - January, 2014

Change the Weather History Date:

Sunday, January 26, 2014

  Actual Average Record
Temperature  
Mean Temperature 43 °F -  
Max Temperature 62 °F 49 °F 62 °F (2014)
Min Temperature 24 °F 32 °F 24 °F (2014)
Degree Days  
Heating Degree Days 22    
Moisture  
Dew Point 28 °F    
Average Humidity 63    
Maximum Humidity 86    
Minimum Humidity 37    
Precipitation  
Precipitation 0.00 in - - ()
Sea Level Pressure  
Sea Level Pressure 29.86 in    
Wind  
Wind Speed 4 mph (SSE)    
Max Wind Speed 20 mph    
Max Gust Speed -    
Visibility 10 miles    
Events      
Averages and records for this station are not official NWS values.
T = Trace of Precipitation, MM = Missing Value Source: NWS Daily Summary

Daily Weather History Graph

Daily Weather History Graph

Search for Another Location

Airport or City:

Trip Planner

Search our weather history database for the weather conditions in past years. The results will help you decide how hot, cold, wet, or windy it might be!

Date:

Astronomy

Jan. 26, 2014 Rise Set
Actual Time 7:03 AM CST 5:21 PM CST
Civil Twilight 6:35 AM CST 5:48 PM CST
Nautical Twilight 6:05 AM CST 6:19 PM CST
Astronomical Twilight 5:35 AM CST 6:49 PM CST
Moon 2:39 AM CST (1/26) 1:11 PM CST (1/26)
Length of Visible Light 11h 12m
Length of Day
10h 18m
Waning Crescent, 23% of the Moon is Illuminated
Jan 26
Waning Crescent
Jan 30
New
Feb 6
First Quarter
Feb 14
Full
Feb 22
Last Quarter

Hourly Weather History & Observations

Time (CST) Temp. Windchill Dew Point Humidity Pressure Visibility Wind Dir Wind Speed Gust Speed Precip Events Conditions
2:15 AM 28.4 °F 24.6 °F 24.8 °F 86% 29.95 in 10.0 mi East 3.5 mph - N/A   Scattered Clouds
2:35 AM 28.4 °F - 21.2 °F 74% 29.95 in 10.0 mi Calm Calm - N/A   Clear
2:55 AM 26.6 °F - 21.2 °F 80% 29.94 in 10.0 mi Calm Calm - N/A   Clear
3:15 AM 26.6 °F 22.6 °F 21.2 °F 80% 29.93 in 10.0 mi East 3.5 mph - N/A   Clear
3:35 AM 28.4 °F - 21.2 °F 74% 29.93 in 10.0 mi Calm Calm - N/A   Clear
3:55 AM 28.4 °F - 21.2 °F 74% 29.92 in 10.0 mi Calm Calm - N/A   Clear
4:15 AM 28.4 °F - 23.0 °F 80% 29.92 in 10.0 mi Calm Calm - N/A   Clear
4:35 AM 28.4 °F 24.6 °F 23.0 °F 80% 29.91 in 10.0 mi ESE 3.5 mph - N/A   Clear
4:55 AM 24.8 °F 20.5 °F 21.2 °F 86% 29.91 in 10.0 mi ESE 3.5 mph - N/A   Clear
5:30 AM 26.6 °F 22.6 °F 21.2 °F 80% 29.89 in 10.0 mi ESE 3.5 mph - N/A   Clear
5:55 AM 26.6 °F 22.6 °F 23.0 °F 86% 29.88 in 10.0 mi ESE 3.5 mph - N/A   Clear
6:55 AM 30.2 °F 24.3 °F 24.8 °F 80% 29.88 in 10.0 mi SE 5.8 mph - N/A   Partly Cloudy
7:55 AM 35.6 °F - 26.6 °F 70% 29.87 in 10.0 mi Calm Calm - N/A   Partly Cloudy
8:55 AM 39.2 °F 34.2 °F 30.2 °F 70% 29.86 in 10.0 mi South 6.9 mph - N/A   Mostly Cloudy
9:55 AM 48.2 °F - 32.0 °F 54% 29.87 in 10.0 mi South 6.9 mph - N/A   Mostly Cloudy
10:55 AM 55.4 °F - 33.8 °F 44% 29.86 in 10.0 mi SSW 9.2 mph - N/A   Scattered Clouds
11:55 AM 60.8 °F - 35.6 °F 39% 29.82 in 10.0 mi SW 19.6 mph - N/A   Scattered Clouds
12:55 PM 59.0 °F - 35.6 °F 42% 29.79 in 10.0 mi SSW 13.8 mph - N/A   Mostly Cloudy
1:55 PM 62.6 °F - 35.6 °F 37% 29.76 in 10.0 mi SSW 18.4 mph - N/A   Mostly Cloudy
2:50 PM 62.6 °F - 37.4 °F 39% 29.74 in 10.0 mi SSW 11.5 mph - N/A   Mostly Cloudy
3:50 PM 62.6 °F - 35.6 °F 37% 29.74 in 10.0 mi SSW 11.5 mph - N/A   Mostly Cloudy
4:50 PM 60.8 °F - 35.6 °F 39% 29.74 in 10.0 mi SSW 6.9 mph - N/A   Mostly Cloudy
5:50 PM 59.0 °F - 35.6 °F 42% 29.75 in 10.0 mi South 6.9 mph - N/A   Mostly Cloudy
6:50 PM 57.2 °F - 35.6 °F 44% 29.75 in 10.0 mi South 6.9 mph - N/A   Overcast